Temperature
28 29 29 30 30 29 29 29 29 28 27 27 26 24 23 22 22 21 20 19 18 17 16 16 16 17 17 17 17 17 17 17 17 16 16 16 16 16 15 16 15 16 16 16
29 29 29 29 29 29 29 29 29 27 27 27 26 24 23 22 21 20 20 19 18 18 17 16 16 16 17 16 16 16 16 16 16 16 16 16 16 15 15 15 16 16 16 16
29 29 29 29 29 29 29 29 29 28 27 27 26 25 24 22 21 20 19 19 18 18 17 17 16 16 16 16 16 16 16 16 16 16 16 15 15 15 15 15 15 15 15 15
29 29 29 29 29 29 29 29 29 28 27 28 27 27 25 24 23 22 20 19 18 18 17 17 17 16 16 16 16 16 16 16 16 16 15 15 15 15 15 15 15 15 15 15
29 29 29 29 29 29 28 28 29 28 28 28 27 27 26 25 24 23 21 20 19 18 17 17 16 16 16 16 16 16 16 16 16 16 15 15 15 15 14 14 14 14 14 14
29 29 29 29 29 28 28 28 28 28 28 27 27 26 25 25 24 23 22 20 19 18 17 17 17 16 16 16 16 15 15 15 15 15 15 15 14 14 14 14 14 14 14 14
28 29 29 29 29 29 28 28 27 26 26 26 26 26 24 23 23 22 22 20 19 18 18 17 17 17 16 16 15 15 15 15 14 14 14 14 14 14 13 13 13 13 13 13
27 27 28 28 28 28 28 27 26 25 26 26 26 25 23 22 21 21 20 20 19 19 18 18 17 17 16 16 15 15 14 14 14 13 13 13 13 13 13 13 13 13 13 13
27 27 28 27 28 28 27 27 27 26 26 26 26 24 22 22 22 21 21 20 20 19 18 18 17 17 16 16 15 15 14 13 13 13 13 13 12 12 12 12 12 12 12 12
28 27 28 27 28 27 27 27 27 26 25 25 25 24 23 22 22 22 22 21 20 19 18 18 17 17 16 15 15 14 13 13 13 12 12 13 12 12 12 12 11 11 11 11
28 27 27 27 26 26 27 26 26 26 25 24 24 23 23 22 21 21 21 20 19 19 18 18 17 16 15 15 14 14 13 13 13 12 12 12 12 12 11 11 11 11 11 10
27 27 26 26 25 26 26 25 25 25 24 24 24 24 22 22 21 21 20 19 19 18 17 17 16 15 15 14 14 13 13 12 12 12 12 11 11 11 11 11 11 11 10 10
26 26 26 25 25 26 25 25 25 25 25 24 24 24 22 22 21 20 20 19 18 17 17 16 15 14 14 13 13 12 12 12 11 11 11 11 11 10 10 10 10 10 10 10
25 26 26 25 25 25 25 24 25 25 24 24 24 24 24 23 22 21 19 18 18 17 16 15 14 14 13 12 12 11 11 11 10 10 10 10 10 9 9 9 9 9 9 9
26 26 25 25 25 25 25 24 24 24 23 23 23 23 23 22 21 20 18 18 17 16 15 15 14 13 12 12 11 11 10 10 9 9 9 9 9 9 9 8 8 8 8 9
25 25 25 25 25 25 24 24 24 23 23 23 23 23 23 21 20 19 18 17 16 15 15 14 13 12 11 11 10 10 9 9 8 8 8 8 8 8 8 8 8 8 8 8
26 25 25 25 25 24 24 24 23 23 24 23 22 22 22 21 19 18 17 16 15 14 13 13 12 11 11 10 9 9 8 8 8 7 7 7 7 7 7 7 7 7 7 7
25 24 25 25 24 23 24 24 24 23 23 23 22 22 21 20 18 17 17 15 14 13 12 12 11 10 10 9 9 8 8 7 7 7 7 7 6 6 6 6 6 6 6 7
24 24 25 25 25 25 24 23 23 22 22 22 21 21 20 19 18 19 17 14 13 12 11 11 10 10 9 9 8 7 7 7 7 7 6 6 6 6 6 6 6 6 6 6
23 24 25 24 23 24 24 23 22 22 22 21 21 20 19 18 18 19 15 13 12 11 11 10 9 9 9 8 7 7 7 6 6 6 6 6 5 5 5 5 5 5 5 6
24 24 24 24 24 25 24 23 22 22 22 20 19 19 18 17 17 15 14 13 12 11 10 10 9 8 8 7 7 6 6 6 6 6 5 5 5 5 5 5 5 5 5 5
25 25 24 24 23 24 23 23 22 22 20 19 18 18 17 16 15 14 13 12 11 10 10 9 9 8 7 7 6 6 6 6 5 5 5 5 5 5 5 5 5 5 5 5
25 25 25 24 24 23 22 22 21 19 19 18 18 17 16 15 15 14 12 12 11 10 9 9 8 8 7 7 6 6 6 5 5 5 5 5 5 5 5 5 5 5 5 5
25 22 23 23 24 23 22 21 20 19 18 17 17 16 15 14 14 13 12 11 10 10 9 8 8 7 7 6 6 6 6 5 5 5 5 5 5 5 5 5 5 5 5 5
25 23 23 23 24 23 21 20 20 18 17 17 16 15 14 13 13 12 11 11 10 9 9 8 7 7 7 6 6 6 6 5 5 5 5 6 6 6 5 5 5 5 5 5
25 24 23 24 24 23 22 20 19 18 17 16 15 15 14 13 12 11 11 10 9 9 8 8 7 7 6 6 6 6 6 6 5 6 6 6 6 6 6 6 6 6 5 5
Wind_Speed
5 7 4 2 4 5 4 4 1 4 3 2 5 7 6 5 6 6 6 7 7 7 7 6 6 5 5 5 4 3 2 2 2 3 3 3 3 4 4 5 6 6 6 6
7 4 2 4 4 5 5 5 2 4 4 2 5 6 6 5 6 6 6 6 6 6 6 6 6 5 5 5 4 3 2 3 3 2 3 3 4 4 3 3 4 4 4 5
4 3 3 4 4 6 6 5 3 2 4 5 5 6 7 6 6 6 5 5 5 5 5 5 5 5 5 4 4 4 4 3 3 4 3 3 3 3 3 3 3 3 4 4
2 2 4 6 4 6 5 2 4 4 6 4 6 4 8 7 6 6 5 5 5 4 4 4 4 4 4 3 3 3 3 4 4 4 4 5 5 4 3 3 2 3 3 3
2 4 6 5 4 5 3 2 4 6 8 6 5 6 7 6 6 6 5 4 4 3 3 2 2 2 2 2 2 2 3 4 4 5 5 5 5 4 3 3 3 3 3 3
3 2 3 4 3 2 1 3 5 7 9 7 0 5 4 4 4 5 5 4 3 1 1 0 1 2 3 3 4 4 5 5 5 6 6 6 6 6 6 5 5 4 3 3
0 1 2 3 4 2 4 7 7 5 5 1 2 3 5 6 4 3 2 1 1 1 2 2 4 5 6 6 7 7 7 8 7 8 8 8 8 8 8 8 6 6 5 4
3 2 5 5 5 5 4 7 7 7 7 4 2 1 6 5 4 2 1 1 2 3 4 5 6 7 8 9 9 10 10 10 10 10 10 10 10 10 9 9 9 8 7 7
5 3 3 4 4 5 4 4 5 7 7 7 0 5 6 4 2 0 2 3 4 5 6 7 8 10 11 11 11 11 11 12 12 12 12 12 12 12 12 12 11 11 9 9
5 6 2 1 2 4 4 3 4 5 6 6 2 1 3 3 3 4 4 5 6 7 8 9 10 11 12 12 12 12 13 13 13 13 13 13 13 14 14 14 14 13 13 12
5 5 1 0 4 6 2 2 4 4 5 7 6 2 5 4 5 6 6 6 7 9 11 11 12 12 13 13 14 14 14 15 15 15 15 15 16 16 16 15 16 15 14 14
3 5 3 2 4 3 5 5 4 5 4 4 7 2 6 3 4 5 7 8 9 11 13 14 14 14 14 15 15 16 16 17 17 17 17 17 17 17 17 17 17 16 16 16
2 3 4 5 6 3 3 4 4 3 4 5 7 4 4 2 5 6 9 11 12 13 14 15 14 15 16 16 17 18 18 19 19 19 19 19 19 19 19 19 18 17 17 17
2 2 5 6 4 2 1 2 3 5 5 7 7 10 9 8 9 10 11 13 15 15 15 15 15 16 16 17 18 19 19 19 19 19 19 20 20 19 20 19 19 18 18 18
2 1 2 3 2 1 1 0 2 4 6 8 11 13 11 9 10 12 13 15 16 17 17 17 17 17 18 19 19 19 19 19 19 19 20 20 20 20 20 19 19 18 18 19
1 1 2 1 1 2 3 3 2 4 6 10 12 11 7 9 11 13 15 16 17 17 18 19 19 19 19 20 20 20 20 19 19 20 20 20 20 20 20 19 19 18 17 17
3 3 4 3 1 6 5 4 4 5 8 10 11 12 13 14 14 15 16 15 16 18 19 20 20 20 19 20 19 20 19 19 19 20 20 19 19 19 19 19 19 18 17 17
3 4 4 5 4 5 3 3 2 7 10 8 9 11 12 14 15 15 12 12 16 18 19 19 19 20 19 19 19 19 19 19 19 19 19 19 18 19 18 18 18 17 16 15
5 5 5 5 7 7 3 3 2 7 11 4 7 11 13 14 15 11 9 13 16 17 18 18 19 19 19 19 19 19 19 19 19 19 18 18 18 18 18 18 18 16 15 15
5 6 7 6 9 7 1 5 0 5 5 2 7 11 13 14 14 12 15 16 17 17 17 17 18 19 18 18 18 19 19 19 19 18 18 18 18 17 17 17 17 15 14 14
7 6 8 9 9 5 6 5 3 6 7 5 8 10 12 12 12 15 17 16 16 17 17 18 18 17 17 17 17 18 19 18 18 18 18 18 17 17 16 16 14 13 12 12
7 6 6 6 7 2 8 4 3 5 4 6 8 9 11 12 14 15 15 16 17 17 18 18 17 17 17 16 16 18 18 18 17 17 17 18 17 15 14 14 13 11 10 10
6 5 4 4 3 4 4 3 1 2 5 6 7 9 10 12 13 15 15 16 16 16 17 17 17 18 17 16 16 18 17 17 17 17 17 16 16 14 13 12 11 9 8 7
5 2 5 6 6 4 5 5 4 4 5 5 6 8 9 12 13 14 14 15 15 15 16 16 17 17 17 17 17 17 17 16 16 17 16 15 14 13 11 9 8 7 6 6
6 5 7 9 7 5 6 6 5 4 4 5 6 7 9 11 13 14 14 14 14 15 15 15 16 17 17 17 17 17 16 16 16 16 14 14 12 11 10 8 7 7 6 5
9 10 10 8 4 5 2 3 4 5 5 5 6 7 8 9 12 13 13 13 14 15 15 15 16 17 17 17 17 16 15 15 15 14 13 11 10 9 8 8 7 3 5 4
Wind_Direction
222 244 247 312 296 307 294 277 248 94 108 100 110 107 94 90 90 90 88 89 87 79 72 67 65 64 65 62 59 51 28 13 340 311 297 291 282 276 276 275 280 275 271 268
229 222 335 311 278 256 249 253 205 133 145 163 135 119 106 92 85 81 89 91 93 92 83 73 70 70 67 61 48 39 25 12 339 332 307 293 297 292 296 309 314 312 306 290
265 10 348 276 246 248 248 264 277 184 169 185 183 165 143 121 111 105 100 96 92 88 83 77 68 63 62 58 40 25 10 356 339 326 314 309 289 282 299 314 315 324 319 315
268 326 301 284 276 279 270 320 282 221 226 227 235 259 141 141 133 119 112 102 94 87 84 78 74 64 57 49 37 21 360 344 335 322 329 327 322 321 326 312 311 304 302 308
298 322 309 302 327 306 333 333 265 252 260 266 226 274 129 149 138 123 118 110 100 93 88 81 60 40 22 3 352 341 330 323 323 321 317 309 316 320 318 310 298 293 298 300
305 301 321 333 326 313 234 236 230 240 255 252 279 285 124 113 101 116 121 121 117 120 115 270 296 303 305 304 305 306 305 302 301 300 301 298 302 302 304 299 298 292 292 293
28 112 59 328 281 201 260 280 270 256 249 264 109 275 77 84 86 88 108 118 147 238 281 291 295 303 304 301 299 298 297 297 297 294 290 287 285 283 278 283 287 285 285 278
327 22 36 9 343 320 316 300 305 307 313 320 186 111 90 82 91 102 116 297 288 286 291 298 301 303 303 303 300 296 295 293 293 291 288 283 277 277 281 278 286 284 281 281
333 351 63 31 9 323 298 317 333 290 287 288 222 117 118 116 109 210 283 287 293 298 300 302 305 309 310 310 307 303 300 296 293 290 288 280 276 276 281 281 272 274 273 272
326 310 7 6 228 62 359 328 285 302 316 305 301 131 101 82 10 346 325 313 307 304 306 309 311 314 315 313 310 307 301 298 296 292 288 286 284 278 273 272 275 275 274 271
317 299 316 129 24 8 1 357 332 310 318 311 317 42 67 27 358 336 330 325 318 315 316 317 318 317 315 314 313 311 307 303 298 294 291 288 285 282 278 271 269 268 267 267
337 306 323 85 88 41 42 17 349 326 335 312 305 43 91 26 343 326 323 321 320 319 317 318 319 319 317 315 314 311 309 305 302 298 294 290 287 284 280 276 274 273 269 264
339 299 267 175 165 136 56 45 24 343 305 318 316 4 108 326 311 312 315 318 318 318 318 319 319 319 316 315 314 312 309 307 305 303 298 294 290 287 283 279 277 274 270 267
302 354 341 357 15 360 28 53 20 340 329 326 330 327 331 333 321 319 319 318 317 318 319 319 320 318 317 314 312 311 309 309 307 305 301 298 294 291 287 283 280 276 271 268
277 3 26 31 24 310 305 319 359 356 345 325 326 321 332 341 327 321 319 319 319 320 322 322 321 318 316 313 312 310 309 308 307 304 300 299 297 294 290 286 282 278 274 270
281 301 273 216 193 275 249 237 279 323 326 321 316 324 355 328 317 318 320 321 321 322 323 322 319 317 316 315 313 312 309 308 307 303 300 299 298 295 292 288 284 279 273 270
224 247 281 293 264 271 244 219 258 308 324 319 316 327 331 321 323 322 320 319 322 323 322 320 319 317 316 314 314 311 310 309 306 303 301 300 298 295 292 290 287 282 277 271
233 253 274 295 281 284 69 109 283 304 311 312 308 319 325 321 321 313 313 324 324 322 320 320 318 317 316 316 315 314 312 310 307 304 303 302 299 296 294 291 288 285 279 273
225 241 274 284 289 288 165 184 279 309 308 316 315 321 322 324 314 313 1 339 325 321 320 318 318 317 317 317 319 317 312 310 308 306 306 304 301 299 296 291 287 286 281 274
189 228 259 271 291 298 95 129 123 290 290 62 321 319 323 322 317 331 344 332 325 323 321 320 319 318 318 321 321 316 312 311 310 310 309 306 303 299 295 292 290 286 281 275
212 225 251 270 278 287 115 135 209 293 351 353 323 320 319 321 314 318 324 326 324 322 321 322 321 320 320 320 319 314 312 312 314 312 309 305 302 301 295 292 289 286 281 275
256 256 249 266 273 280 134 174 270 328 343 319 318 319 319 316 315 319 323 323 323 323 324 326 323 321 322 322 321 316 314 316 315 312 308 307 307 304 302 299 294 289 282 275
248 284 286 266 307 92 173 225 289 308 301 313 316 321 319 316 319 323 323 323 324 324 326 326 325 323 323 326 325 319 319 320 317 314 312 312 311 308 306 302 301 297 285 275
217 212 249 254 254 221 213 228 238 255 282 303 310 314 316 317 320 323 323 322 324 326 327 327 327 324 325 328 326 322 322 323 319 317 317 315 314 314 314 310 305 301 295 287
274 212 241 253 260 241 220 224 235 241 260 283 299 311 316 318 319 322 321 323 325 325 327 327 326 324 325 328 325 325 327 325 322 321 320 319 321 323 320 317 316 314 308 298
245 235 244 264 244 237 217 178 206 227 251 278 296 305 313 317 319 321 321 323 323 324 326 327 328 327 327 327 326 329 330 328 325 323 324 325 329 330 326 324 323 306 291 293
Height
1499 1496 1490 1487 1486 1487 1487 1487 1487 1491 1493 1493 1497 1503 1507 1509 1510 1511 1512 1514 1515 1515 1515 1515 1514 1514 1514 1513 1513 1513 1512 1512 1510 1509 1508 1506 1505 1503 1500 1500 1498 1497 1497 1497
1495 1492 1489 1489 1488 1488 1488 1488 1488 1492 1494 1494 1498 1503 1507 1510 1511 1513 1514 1515 1516 1516 1517 1516 1515 1515 1514 1513 1513 1513 1512 1511 1509 1508 1506 1505 1503 1501 1499 1498 1497 1495 1494 1494
1492 1489 1489 1488 1488 1487 1485 1485 1486 1490 1493 1493 1495 1501 1505 1509 1512 1514 1515 1516 1517 1517 1517 1517 1517 1516 1515 1514 1514 1513 1511 1510 1509 1507 1506 1504 1502 1500 1499 1497 1496 1494 1492 1492
1489 1488 1488 1486 1485 1485 1487 1482 1484 1487 1492 1489 1493 1497 1500 1503 1508 1512 1515 1516 1517 1518 1518 1518 1517 1516 1515 1514 1513 1512 1510 1509 1508 1506 1505 1503 1502 1501 1498 1496 1494 1493 1491 1490
1489 1488 1488 1487 1486 1485 1485 1485 1484 1484 1486 1488 1488 1493 1496 1499 1504 1509 1513 1516 1517 1518 1518 1518 1517 1516 1515 1514 1512 1511 1509 1508 1506 1504 1503 1501 1500 1499 1497 1495 1493 1491 1490 1488
1487 1488 1488 1487 1486 1486 1486 1485 1484 1483 1481 1495 1491 1495 1498 1498 1504 1508 1512 1515 1517 1517 1517 1517 1516 1515 1514 1513 1511 1510 1508 1506 1504 1502 1501 1499 1497 1496 1494 1492 1491 1489 1488 1486
1489 1486 1486 1487 1484 1484 1484 1488 1495 1498 1496 1496 1491 1494 1504 1503 1506 1509 1512 1514 1516 1516 1516 1516 1515 1514 1513 1511 1510 1508 1505 1503 1501 1500 1498 1496 1494 1492 1491 1489 1488 1487 1485 1484
1497 1497 1489 1488 1488 1488 1486 1488 1500 1509 1503 1493 1490 1497 1506 1507 1510 1512 1513 1514 1515 1515 1515 1514 1513 1512 1511 1509 1507 1505 1503 1500 1498 1496 1494 1492 1490 1489 1488 1486 1484 1483 1482 1481
1496 1497 1490 1490 1489 1487 1488 1487 1487 1493 1491 1497 1491 1499 1507 1508 1509 1511 1512 1513 1513 1513 1513 1512 1511 1510 1508 1506 1504 1502 1499 1496 1494 1492 1490 1488 1486 1484 1483 1481 1479 1478 1477 1476
1492 1498 1490 1490 1488 1490 1488 1488 1489 1493 1507 1507 1498 1500 1505 1506 1507 1508 1509 1510 1511 1511 1511 1510 1508 1507 1505 1503 1500 1497 1495 1492 1489 1487 1485 1483 1481 1479 1476 1475 1473 1472 1471 1470
1491 1496 1493 1490 1495 1494 1491 1491 1492 1491 1497 1506 1508 1507 1504 1507 1508 1508 1508 1509 1510 1509 1508 1507 1505 1503 1501 1499 1496 1493 1490 1487 1484 1482 1479 1476 1474 1472 1470 1468 1466 1465 1464 1463
1494 1492 1495 1495 1497 1495 1494 1497 1495 1501 1503 1501 1502 1506 1505 1507 1509 1509 1509 1509 1509 1508 1506 1504 1502 1500 1497 1494 1491 1488 1485 1482 1478 1475 1472 1469 1466 1464 1462 1460 1459 1457 1456 1455
1495 1498 1500 1500 1501 1497 1497 1498 1498 1498 1499 1501 1504 1504 1504 1505 1507 1507 1508 1508 1507 1506 1503 1501 1499 1496 1493 1490 1487 1483 1479 1476 1472 1468 1465 1461 1459 1456 1453 1451 1450 1448 1447 1446
1497 1497 1501 1504 1502 1498 1500 1500 1499 1499 1501 1503 1502 1501 1498 1500 1503 1505 1506 1506 1504 1502 1500 1498 1495 1492 1489 1485 1481 1477 1473 1469 1465 1461 1457 1454 1451 1448 1445 1442 1440 1439 1437 1436
1496 1497 1498 1497 1497 1497 1500 1501 1500 1502 1504 1505 1503 1501 1498 1501 1504 1505 1504 1503 1501 1499 1497 1494 1491 1488 1484 1480 1476 1471 1467 1463 1459 1454 1450 1446 1442 1439 1436 1433 1431 1429 1428 1427
1497 1498 1497 1499 1498 1498 1501 1501 1502 1502 1502 1501 1500 1498 1499 1503 1503 1503 1502 1500 1498 1496 1494 1491 1487 1483 1479 1475 1470 1465 1461 1456 1452 1447 1442 1438 1434 1430 1427 1424 1421 1419 1418 1417
1493 1498 1500 1497 1497 1500 1501 1499 1501 1501 1499 1501 1501 1500 1499 1500 1501 1501 1500 1498 1496 1494 1491 1487 1483 1479 1474 1470 1465 1459 1454 1449 1444 1440 1435 1430 1426 1422 1418 1415 1412 1410 1408 1407
1497 1498 1496 1495 1501 1510 1500 1497 1499 1501 1499 1497 1498 1499 1500 1501 1500 1499 1497 1496 1494 1492 1488 1483 1479 1474 1469 1464 1459 1454 1448 1443 1438 1433 1428 1423 1418 1413 1409 1406 1403 1400 1399 1397
1496 1497 1495 1496 1498 1496 1496 1497 1498 1500 1498 1497 1499 1500 1500 1499 1497 1492 1494 1494 1492 1489 1484 1480 1475 1470 1464 1459 1454 1448 1442 1437 1431 1426 1420 1415 1410 1406 1401 1397 1394 1391 1389 1388
1496 1495 1494 1495 1503 1502 1493 1495 1499 1501 1496 1497 1499 1499 1499 1497 1493 1490 1493 1491 1488 1485 1480 1475 1470 1465 1460 1454 1448 1442 1437 1431 1425 1420 1414 1409 1404 1399 1394 1389 1385 1383 1381 1379
1492 1494 1493 1493 1496 1488 1490 1496 1499 1501 1498 1499 1499 1499 1498 1496 1496 1494 1491 1488 1485 1481 1476 1471 1466 1460 1455 1449 1444 1437 1431 1426 1420 1414 1408 1402 1397 1392 1387 1382 1378 1375 1373 1372
1487 1487 1492 1492 1496 1493 1491 1494 1495 1497 1498 1498 1498 1498 1497 1496 1494 1491 1488 1485 1481 1477 1472 1467 1462 1456 1451 1445 1439 1433 1427 1420 1414 1408 1402 1396 1391 1386 1381 1376 1372 1369 1367 1365
1484 1483 1481 1486 1488 1489 1490 1492 1494 1496 1496 1497 1496 1496 1495 1493 1491 1488 1485 1482 1478 1473 1469 1464 1458 1452 1447 1441 1435 1428 1422 1415 1409 1403 1397 1391 1385 1380 1376 1372 1368 1365 1362 1361
1481 1487 1485 1486 1483 1487 1490 1491 1493 1494 1495 1495 1495 1494 1493 1491 1488 1486 1482 1479 1475 1470 1465 1460 1455 1449 1443 1437 1431 1425 1418 1411 1405 1399 1393 1387 1381 1376 1372 1368 1365 1362 1359 1357
1479 1484 1483 1484 1483 1486 1487 1489 1491 1492 1492 1492 1492 1492 1490 1489 1486 1483 1479 1476 1472 1467 1462 1457 1451 1446 1440 1433 1427 1421 1415 1408 1402 1396 1390 1384 1379 1374 1369 1366 1362 1360 1357 1356
1476 1478 1480 1479 1479 1482 1484 1487 1488 1489 1490 1490 1490 1489 1488 1486 1483 1480 1477 1473 1469 1464 1459 1454 1448 1443 1436 1430 1424 1418 1412 1405 1399 1393 1388 1383 1378 1373 1369 1365 1361 1358 1356 1354